STARLINK-32134, 60300

Orbit data source: Space-Track

STARLINK-32134, 60300 is a payload satellite owned by SpaceX/Seattle (US) in LEO that was launched on Sun, 28 Jul 2024 UTC via an FALCON 9 launch vehicle from the Air Force Eastern Test Range (AFETR). Payload-class satellites include a variety of spacecraft equipped with specific instruments for various scientific and technological missions. These include communications satellites like Starlink; space stations such as the ISS; scientific satellites like the Hubble; Earth observation satellites from companies like Planet Labs, Umbra, and HawkEye 360; GPS; miniature CubeSats for education and research; and military/defense satellites.

Loading next visibility...
Identifier
60300, 2024-132Y
Orbit
LEO
Country
Flag of USUS
Related business
Manufacturer
SpaceX/Seattle
Mission
Operational Commercial Communications
Bus & Motor
STARLINK V2M, Unknown motor
Mass
730 kg wet, ~700 kg dry
Launch date (UTC)
2024-07-28 (2 years ago)
Launch vehicle
FALCON 9
Launch site
Air Force Eastern Test Range (AFETR)
Object type
Payload
Rocket body
Debris
Shape & HBR
Box + 2 Pan, 17.7 m
Radar Cross Section
33.884 m², Large (>1 m²)

Expand to show TLE details & history
Last TLE update: 12 hours ago

TLE from 12 hours ago
0 STARLINK-32134
1 60300U 24132Y   26150.94043350 -.00000968  00000-0 -20561-4 0  9996
2 60300  53.1622  30.3602 0001458  96.7081 263.4086 15.30202178104152
Epoch: 2026-05-30T22:34Z
TLE epoch observation values (Epoch: 2026-05-30T22:34:13.454Z)
Latitude
Longitude
163.35489°
Altitude
476.223 km
Speed
7.629 km/s
True Right ascension
02h 01m 26s
True Declination
0° 00' 00"
Sunlit
Object was in daylight at epoch
Visualization orbit readout
Latitude
Unknown
Longitude
Unknown
Altitude
Unknown
Speed
Unknown
Apparent Right ascension
Unknown
Apparent Declination
Unknown
Sunlit
N/A
Visualization observer readout
Local Sidereal Time
20:33:04
Azimuth
Unknown
Elevation
Unknown
Doppler factor
Unknown
Orbital elements
Apogee altitude
476.464 km
Perigee altitude
474.465 km
Semi-major axis
6,853.602 km
Eccentricity
0.00015
Inclination
53.1622°
RAAN
30.3602°
Arg. of periapsis
96.7081°
True anomaly
263.392°
Mean anomaly
263.4086°
Eccentric anomaly
263.4003°
Mean motion
3.82529 °/min
Orbital period
94.11 mins
BSTAR
-0.000020561
Loading maneuver chart data...
Computing Atmospheric mass density...
Loading historical data...
Loading historical data...
Loading historical data...
Loading historical data...
Loading historical data...
Loading historical data...
Loading historical data...

Documentation

Showing up to 5 results
|